Regional Weather Roundup
Issued by NWS Midland/Odessa, TX

Home | Current Version | Previous Version | Text Only | Print | Product List | Glossary On
Versions: 1 2 3 4 5 6 7 8 9 10 11 12 13 14 15 16 17 18 19 20 21 22 23 24 25 26 27 28 29 30 31 32 33 34 35 36 37 38 39 40 41 42 43 44 45 46 47 48 49 50
000
ASUS44 KMAF 210610
RWRMAF
MIDLAND AREA WEATHER ROUNDUP
NATIONAL WEATHER SERVICE MIDLAND TX
100 AM CDT THU AUG 21 2014

...IN SOUTHWEST TEXAS AND SOUTHEAST NEW MEXICO...

CITY           SKY/WX    TMP DP  RH WIND       PRES   REMARKS
ALPINE         CLOUDY    71  63  75 CALM      30.16S
ANDREWS        FAIR      77  62  59 S9        29.99F
ARTESIA        CLEAR     77  61  57 N3        29.95F
BIG SPRING     FAIR      84  59  42 SE14      29.99F
CARLSBAD       CLEAR     80  61  52 S10       29.95S
DRYDEN           N/A     83  65  54 W6        29.96S
FORT STOCKTON  FAIR      75  65  70 SW9       29.99F
GUAD PASS      CLEAR     74  52  46 SW9       30.14R
HOBBS          FAIR      75  61  60 S14       30.01F
MARFA          MOCLDY    68  63  83 CALM      30.16S
MIDLAND AIRPK  NOT AVBL
MIDLAND INTL   FAIR      79  67  66 S10       29.98F
ODESSA         FAIR      78  65  63 S9        29.99F
PECOS          FAIR      80  62  54 SE8       29.93S
PRESIDIO       MOCLDY    78  65  64 NE5       30.00S
SEMINOLE       FAIR      76  61  60 S9        30.01S
SNYDER         FAIR      81  60  49 S10       29.97F
WINK           FAIR      81  63  54 SE13      29.94F
$$
...OTHER STATIONS IN TEXAS...

CITY           SKY/WX    TMP DP  RH WIND       PRES   REMARKS
ABILENE        FAIR      81  61  50 MISG      29.96F
AMARILLO       FAIR      77  63  61 S16       29.99S
AUSTIN         FAIR      81  73  76 S9        30.00S
BROWNSVILLE    FAIR      83  77  82 S17       30.00S
CORPUS CHRISTI FAIR      84  79  85 S20       29.99R
DALLAS FTW     FAIR      84  71  65 S15       29.96R
DEL RIO        FAIR      88  69  53 SE15      29.91R
EL PASO        CLEAR     82  47  29 W16G22    30.00R
HOUSTON INT    FAIR      82  78  88 S5        30.02S
LUBBOCK        CLOUDY    78  63  59 S16       29.98F
SAN ANGELO     FAIR      76  64  66 SE7       29.96F
SAN ANTONIO    FAIR      82  72  71 SE15      30.02R
WACO           FAIR      83  72  69 S17       29.99R
WICHITA FALLS  NOT AVBL
$$
...OTHER LOCATIONS IN NEW MEXICO...

CITY           SKY/WX    TMP DP  RH WIND       PRES   REMARKS
ALAMAGORDO     CLEAR     72  46  40 SE8       30.03R
ALBUQUERQUE    CLEAR     72  45  37 SE3       30.09R
CANNON AFB     PTCLDY    73  61  64 S8        30.02S
CLOVIS           N/A     73  61  64 S12       30.04S
HOLLOMAN AFB   CLEAR     78  44  30 E8        30.00R
ROSWELL        PTCLDY    77  60  55 SE9       29.95S
RUIDOSO        CLEAR     61  46  59 W8        30.22S
SANTA FE       CLEAR     62  43  49 N9        30.14R
TRUTH OR CONSE CLEAR     73  47  39 W8        30.05R
TUCUMCARI      MOCLDY    79  54  41 S8        29.95R
$$


USA.gov is the U.S. government's official web portal to all federal, state and local government web resources and services.